Current weather by "City, St" or "zip code"  
 

Current Conditions: Tullahoma Regional Airport/William Northern Field, TN

Overcast


55.0 F

Last Updated on Oct 24 2020, 11:55 am CDT
Humidity: 94%
Wind Speed: N 6.9 mph
Barometer 30.06 in
Dewpoint: 53.6 F
Visibility: 10.00 mi
Precip: --
Heat Index: NA
Wind Chill: 53 F
Current conditions at:

Tullahoma Regional Airport/William Northern Field, TN (KTHA)

Lat: 35.38 Lon: 86.2467

Local Radar Image active severe weather and emergency alerts image image weather storm and storm spotter reports image weather observation monitoring service image
Local
Radar
Active
Alerts
Storm Reports Obs
Monitoring

Sign-up For Email & Text Message Weather Alert Notification Services



Advertise Here

Observation History for Tullahoma Regional Airport/William Northern Field, TN


Time Wind
(mph)
Vis
(mi)
Weather Precip (in) Temperature (F) Relative
Humidity
Wind
Chill
(F)
Heat
Index
(F)
Pressure
Air Dwpt altimeter
(in)
sea level
(mb)
Rmks
11:55 am CDT N 6.9 10.00 Overcast -- 55.0 53.6 94% 53 NA 30.06 M
10:55 am CDT NE 8.1 9.00 Overcast -- 54.0 51.8 94% 52 NA 30.07 M
9:55 am CDT NE 5.8 8.00 Overcast -- 54.0 51.8 94% 53 NA 30.08 M
8:55 am CDT N 8.1 9.00 Overcast -- 52.0 51.8 100% 49 NA 30.09 M
7:55 am CDT N 8.1 1.75 Fog/Mist -- 52.0 50.0 94% 49 NA 30.07 M
6:55 am CDT N 10.4 1.75 Fog/Mist -- 52.0 51.8 100% 48 NA 30.06 M
5:55 am CDT NW 8.1 1.50 Fog/Mist -- 52.0 51.8 100% 49 NA 30.08 M
4:55 am CDT N 8.1 0.50 Fog -- 54.0 53.6 100% 52 NA 30.07 M
3:55 am CDT NW 11.5 8.00 Overcast -- 57.0 57.2 100% 54 NA 30.06 M
2:55 am CDT NW 8.1 10.00 Overcast -- 63.0 62.6 100% 63 NA 30.04 M
1:55 am CDT 6.9 3.00 Fog/Mist -- 64.0 62.6 94% NA NA 30.05 M
12:55 am CDT W 8.1 1.75 Fog/Mist -- 64.0 62.6 94% NA NA 30.06 M
11:55 pm CDT 5.8 2.00 Fog/Mist -- 64.0 62.6 94% NA NA 30.05 M
10:55 pm CDT NE 5.8 9.00 Overcast -- 64.0 62.6 94% NA NA 30.05 M
9:55 pm CDT N 10.4 10.00 Overcast -- 68.0 64.4 88% NA NA 30.04 M
8:55 pm CDT N 0.0 10.00 Mostly Cloudy -- 66.0 62.6 88% NA NA 30.04 M
7:55 pm CDT N 0.0 10.00 Mostly Cloudy -- 66.0 62.6 88% NA NA 30.04 M
6:55 pm CDT N 0.0 10.00 A Few Clouds -- 70.0 64.4 83% NA NA 30.02 M
5:55 pm CDT N 0.0 10.00 Fair -- 73.0 64.4 74% NA NA 30.01 M
4:55 pm CDT SW 5.8 10.00 Fair -- 77.0 64.4 65% NA NA 30.01 M
3:55 pm CDT S 6.9 G 15.0 10.00 Partly Cloudy -- 79.0 64.4 61% NA NA 30.01 M
2:55 pm CDT S 6.9 G 13.8 10.00 Partly Cloudy -- 81.0 64.4 58% NA 83 30.03 M
1:55 pm CDT SW 9.2 10.00 Partly Cloudy -- 81.0 64.4 58% NA 83 30.05 M
12:55 pm CDT SW 8.1 10.00 Partly Cloudy -- 77.0 64.4 65% NA NA 30.08 M

Regional Weather Observation


Winchester Municipal Airport, TN (KBGF)

Overcast
57.0 F

Smyrna, Smyrna Airport, TN (KMQY)

Overcast
53.0 F

Nashville, Nashville International Airport, TN (KBNA)

Light Rain Fog/Mist
53.0 F

Columbia / Maury County, TN (KMRC)

Overcast
52.0 F

Huntsville, Madison County Executive Airport, AL (KMDQ)

Overcast
55.0 F

Redstone Airfield, AL (KHUA)

Light Rain Fog/Mist
56.0 F